Time,TemperatureF,DewpointF,PressureIn,WindDirection,WindDirectionDegrees,WindSpeedMPH,WindSpeedGustMPH,Humidity,HourlyPrecipIn,Conditions,Clouds,dailyrainin,SoftwareType,DateUTC
2013-04-30 00:01:00,45.0,38.5,30.17,East,90,0.7,3.8,78,0.00,,,0.00,WUHU216HW,2013-04-30 07:01:00,
2013-04-30 00:06:00,45.0,38.3,30.17,ENE,68,1.1,1.6,77,0.00,,,0.00,WUHU216HW,2013-04-30 07:06:00,
2013-04-30 00:11:00,45.0,38.3,30.18,NNE,23,1.6,2.7,77,0.00,,,0.00,WUHU216HW,2013-04-30 07:11:00,
2013-04-30 00:16:00,45.0,38.5,30.17,SE,135,1.3,2.7,78,0.00,,,0.00,WUHU216HW,2013-04-30 07:16:00,
2013-04-30 00:21:00,45.0,38.3,30.18,SSE,158,1.1,1.8,77,0.00,,,0.00,WUHU216HW,2013-04-30 07:21:00,
2013-04-30 00:26:00,45.0,38.5,30.18,NE,45,0.4,2.0,78,0.00,,,0.00,WUHU216HW,2013-04-30 07:26:00,
2013-04-30 00:31:00,44.8,38.1,30.18,ESE,113,2.2,4.9,77,0.00,,,0.00,WUHU216HW,2013-04-30 07:31:00,
2013-04-30 00:36:00,44.8,38.1,30.18,ESE,113,1.3,4.9,77,0.00,,,0.00,WUHU216HW,2013-04-30 07:36:00,
2013-04-30 00:41:00,44.8,38.1,30.18,ESE,113,1.1,1.6,77,0.00,,,0.00,WUHU216HW,2013-04-30 07:41:00,
2013-04-30 00:46:00,44.8,38.1,30.18,NNW,338,3.1,3.1,77,0.00,,,0.00,WUHU216HW,2013-04-30 07:46:00,
2013-04-30 00:51:00,44.6,36.8,30.18,NNE,23,2.5,3.8,74,0.00,,,0.00,WUHU216HW,2013-04-30 07:51:00,
2013-04-30 00:56:00,44.5,36.6,30.18,NNW,338,1.8,5.1,74,0.00,,,0.00,WUHU216HW,2013-04-30 07:56:00,
2013-04-30 01:01:00,44.1,36.6,30.18,NW,315,0.7,5.1,75,0.00,,,0.00,WUHU216HW,2013-04-30 08:01:00,
2013-04-30 01:06:00,43.9,36.8,30.18,NNW,338,3.1,5.4,76,0.00,,,0.00,WUHU216HW,2013-04-30 08:06:00,
2013-04-30 01:11:00,43.7,37.0,30.18,North,0,4.0,5.4,77,0.00,,,0.00,WUHU216HW,2013-04-30 08:11:00,
2013-04-30 01:16:00,43.7,37.0,30.18,North,0,0.9,4.0,77,0.00,,,0.00,WUHU216HW,2013-04-30 08:16:00,
2013-04-30 01:21:00,43.6,36.8,30.18,NE,45,2.5,3.8,77,0.00,,,0.00,WUHU216HW,2013-04-30 08:21:00,
2013-04-30 01:26:00,43.6,36.8,30.18,SSE,158,2.0,4.0,77,0.00,,,0.00,WUHU216HW,2013-04-30 08:26:00,
2013-04-30 01:31:00,43.6,36.5,30.18,NNE,23,0.7,4.0,76,0.00,,,0.00,WUHU216HW,2013-04-30 08:31:00,
2013-04-30 01:36:00,43.6,36.5,30.18,East,90,2.2,2.2,76,0.00,,,0.00,WUHU216HW,2013-04-30 08:36:00,
2013-04-30 01:41:00,43.7,36.6,30.18,ENE,68,1.8,2.2,76,0.00,,,0.00,WUHU216HW,2013-04-30 08:41:00,
2013-04-30 01:46:00,43.7,37.0,30.18,SE,135,1.6,2.0,77,0.00,,,0.00,WUHU216HW,2013-04-30 08:46:00,
2013-04-30 01:51:00,43.9,36.8,30.18,SE,135,1.6,1.8,76,0.00,,,0.00,WUHU216HW,2013-04-30 08:51:00,
2013-04-30 01:56:00,43.9,36.5,30.18,SE,135,2.0,2.2,75,0.00,,,0.00,WUHU216HW,2013-04-30 08:56:00,
2013-04-30 02:01:00,44.1,37.0,30.18,SE,135,1.3,2.2,76,0.00,,,0.00,WUHU216HW,2013-04-30 09:01:00,
2013-04-30 02:06:00,44.1,36.6,30.18,SE,135,1.6,3.4,75,0.00,,,0.00,WUHU216HW,2013-04-30 09:06:00,
2013-04-30 02:11:00,44.3,37.2,30.18,South,180,2.2,3.4,76,0.00,,,0.00,WUHU216HW,2013-04-30 09:11:00,
2013-04-30 02:16:00,44.3,37.2,30.18,SE,135,0.9,2.5,76,0.00,,,0.00,WUHU216HW,2013-04-30 09:16:00,
2013-04-30 02:21:00,44.3,37.5,30.19,South,180,1.1,2.5,77,0.00,,,0.00,WUHU216HW,2013-04-30 09:21:00,
2013-04-30 02:26:00,44.3,37.2,30.19,ESE,113,1.1,2.5,76,0.00,,,0.00,WUHU216HW,2013-04-30 09:26:00,
2013-04-30 02:31:00,44.3,37.5,30.18,NNE,23,1.3,2.7,77,0.00,,,0.00,WUHU216HW,2013-04-30 09:31:00,
2013-04-30 02:36:00,44.1,37.4,30.18,SE,135,2.9,2.9,77,0.00,,,0.00,WUHU216HW,2013-04-30 09:36:00,
2013-04-30 02:41:00,44.1,37.4,30.18,ESE,113,0.7,2.9,77,0.00,,,0.00,WUHU216HW,2013-04-30 09:41:00,
2013-04-30 02:46:00,43.9,37.5,30.19,ESE,113,1.6,2.5,78,0.00,,,0.00,WUHU216HW,2013-04-30 09:46:00,
2013-04-30 02:51:00,43.7,37.0,30.18,SSE,158,0.4,2.5,77,0.00,,,0.00,WUHU216HW,2013-04-30 09:51:00,
2013-04-30 02:56:00,43.6,36.8,30.19,SE,135,0.2,1.6,77,0.00,,,0.00,WUHU216HW,2013-04-30 09:56:00,
2013-04-30 03:01:00,43.6,37.2,30.19,NE,45,1.3,2.2,78,0.00,,,0.00,WUHU216HW,2013-04-30 10:01:00,
2013-04-30 03:06:00,43.6,37.2,30.19,East,90,1.1,2.2,78,0.00,,,0.00,WUHU216HW,2013-04-30 10:06:00,
2013-04-30 03:11:00,43.4,37.0,30.19,SSE,158,1.1,2.0,78,0.00,,,0.00,WUHU216HW,2013-04-30 10:11:00,
2013-04-30 03:16:00,43.4,37.0,30.19,SE,135,0.2,2.0,78,0.00,,,0.00,WUHU216HW,2013-04-30 10:16:00,
2013-04-30 03:21:00,43.4,37.0,30.19,SE,135,0.4,2.0,78,0.00,,,0.00,WUHU216HW,2013-04-30 10:21:00,
2013-04-30 03:26:00,43.6,37.2,30.20,ESE,113,1.1,1.6,78,0.00,,,0.00,WUHU216HW,2013-04-30 10:26:00,
2013-04-30 03:31:00,43.6,37.2,30.19,SSE,158,0.4,1.1,78,0.00,,,0.00,WUHU216HW,2013-04-30 10:31:00,
2013-04-30 03:36:00,43.6,37.2,30.19,NE,45,1.3,1.3,78,0.00,,,0.00,WUHU216HW,2013-04-30 10:36:00,
2013-04-30 03:41:00,43.4,36.6,30.20,ESE,113,0.0,2.7,77,0.00,,,0.00,WUHU216HW,2013-04-30 10:41:00,
2013-04-30 03:45:00,43.4,36.6,30.20,SW,225,0.4,2.7,77,0.00,,,0.00,WUHU216HW,2013-04-30 10:45:00,
2013-04-30 03:50:00,43.2,36.5,30.20,NE,45,0.2,1.1,77,0.00,,,0.00,WUHU216HW,2013-04-30 10:50:00,
2013-04-30 03:55:00,43.2,36.5,30.20,SE,135,0.0,1.6,77,0.00,,,0.00,WUHU216HW,2013-04-30 10:55:00,
2013-04-30 04:00:00,43.2,36.5,30.20,ESE,113,1.1,1.8,77,0.00,,,0.00,WUHU216HW,2013-04-30 11:00:00,
2013-04-30 04:05:00,43.2,36.8,30.20,SSE,158,0.9,2.0,78,0.00,,,0.00,WUHU216HW,2013-04-30 11:05:00,
2013-04-30 04:10:00,43.0,36.6,30.20,SE,135,0.4,2.0,78,0.00,,,0.00,WUHU216HW,2013-04-30 11:10:00,
2013-04-30 04:15:00,43.0,36.6,30.20,SE,135,1.1,2.0,78,0.00,,,0.00,WUHU216HW,2013-04-30 11:15:00,
2013-04-30 04:20:00,42.8,36.5,30.20,East,90,0.4,1.8,78,0.00,,,0.00,WUHU216HW,2013-04-30 11:20:00,
2013-04-30 04:25:00,42.8,36.5,30.20,ESE,113,0.4,2.0,78,0.00,,,0.00,WUHU216HW,2013-04-30 11:25:00,
2013-04-30 04:30:00,42.7,36.3,30.21,SE,135,0.4,2.0,78,0.00,,,0.00,WUHU216HW,2013-04-30 11:30:00,
2013-04-30 04:35:00,42.7,36.3,30.21,NE,45,0.4,1.1,78,0.00,,,0.00,WUHU216HW,2013-04-30 11:35:00,
2013-04-30 04:40:00,42.7,35.9,30.21,SE,135,0.7,1.1,77,0.00,,,0.00,WUHU216HW,2013-04-30 11:40:00,
2013-04-30 04:45:00,42.8,36.1,30.21,SE,135,0.4,2.9,77,0.00,,,0.00,WUHU216HW,2013-04-30 11:45:00,
2013-04-30 04:50:00,42.8,36.1,30.21,ENE,68,0.0,2.9,77,0.00,,,0.00,WUHU216HW,2013-04-30 11:50:00,
2013-04-30 04:55:00,42.8,36.1,30.21,ENE,68,0.0,1.3,77,0.00,,,0.00,WUHU216HW,2013-04-30 11:55:00,
2013-04-30 05:00:00,42.8,36.1,30.21,North,0,0.4,1.1,77,0.00,,,0.00,WUHU216HW,2013-04-30 12:00:00,
2013-04-30 05:05:00,42.7,35.9,30.22,NNW,338,0.0,2.0,77,0.00,,,0.00,WUHU216HW,2013-04-30 12:05:00,
2013-04-30 05:10:00,42.7,35.9,30.22,NNW,338,0.4,2.0,77,0.00,,,0.00,WUHU216HW,2013-04-30 12:10:00,
2013-04-30 05:15:00,42.5,35.7,30.22,North,0,5.6,5.6,77,0.00,,,0.00,WUHU216HW,2013-04-30 12:15:00,
2013-04-30 05:20:00,42.3,35.6,30.22,NNE,23,1.3,5.6,77,0.00,,,0.00,WUHU216HW,2013-04-30 12:20:00,
2013-04-30 05:25:00,41.8,36.0,30.22,NNW,338,3.1,5.6,80,0.02,,,0.00,WUHU216HW,2013-04-30 12:25:00,
2013-04-30 05:30:00,41.0,35.9,30.22,North,0,0.7,3.1,82,0.03,,,0.02,WUHU216HW,2013-04-30 12:30:00,
2013-04-30 05:35:00,40.5,35.7,30.21,NE,45,2.7,2.9,83,0.04,,,0.04,WUHU216HW,2013-04-30 12:35:00,
2013-04-30 05:40:00,40.3,35.2,30.21,North,0,2.5,4.0,82,0.04,,,0.04,WUHU216HW,2013-04-30 12:40:00,
2013-04-30 05:45:00,40.3,35.6,30.22,WSW,248,0.2,4.5,83,0.04,,,0.04,WUHU216HW,2013-04-30 12:45:00,
2013-04-30 05:50:00,40.5,35.4,30.22,ESE,113,0.4,4.5,82,0.04,,,0.04,WUHU216HW,2013-04-30 12:50:00,
2013-04-30 05:55:00,40.5,35.7,30.22,SE,135,0.0,1.3,83,0.04,,,0.04,WUHU216HW,2013-04-30 12:55:00,
2013-04-30 06:00:00,40.5,35.7,30.22,East,90,0.4,1.3,83,0.04,,,0.04,WUHU216HW,2013-04-30 13:00:00,
2013-04-30 06:05:00,40.5,35.7,30.22,East,90,0.4,1.8,83,0.04,,,0.04,WUHU216HW,2013-04-30 13:05:00,
2013-04-30 06:10:00,40.5,35.4,30.23,ENE,68,0.4,1.8,82,0.04,,,0.04,WUHU216HW,2013-04-30 13:10:00,
2013-04-30 06:15:00,40.5,35.7,30.23,NW,315,0.7,1.1,83,0.04,,,0.04,WUHU216HW,2013-04-30 13:15:00,
2013-04-30 06:20:00,40.3,35.8,30.23,SSE,158,0.4,1.8,84,0.03,,,0.04,WUHU216HW,2013-04-30 13:20:00,
2013-04-30 06:25:00,40.3,36.1,30.23,ESE,113,1.1,1.8,85,0.01,,,0.04,WUHU216HW,2013-04-30 13:25:00,
2013-04-30 06:30:00,40.5,36.3,30.23,SE,135,0.2,1.8,85,0.00,,,0.04,WUHU216HW,2013-04-30 13:30:00,
2013-04-30 06:35:00,40.5,36.0,30.23,NE,45,0.0,0.9,84,0.00,,,0.04,WUHU216HW,2013-04-30 13:35:00,
2013-04-30 06:40:00,40.5,36.0,30.24,East,90,0.2,0.4,84,0.00,,,0.04,WUHU216HW,2013-04-30 13:40:00,
2013-04-30 06:45:00,40.3,35.8,30.24,SSW,203,0.4,1.1,84,0.00,,,0.04,WUHU216HW,2013-04-30 13:45:00,
2013-04-30 06:50:00,40.5,36.3,30.24,SSW,203,2.2,2.2,85,0.00,,,0.04,WUHU216HW,2013-04-30 13:50:00,
2013-04-30 06:55:00,40.7,36.5,30.24,South,180,1.1,2.2,85,0.00,,,0.04,WUHU216HW,2013-04-30 13:55:00,
2013-04-30 07:00:00,40.7,36.5,30.25,SE,135,0.0,1.1,85,0.00,,,0.04,WUHU216HW,2013-04-30 14:00:00,
2013-04-30 07:05:00,40.7,36.5,30.25,East,90,0.4,1.1,85,0.00,,,0.04,WUHU216HW,2013-04-30 14:05:00,
2013-04-30 07:10:00,40.9,36.6,30.25,NE,45,1.1,1.8,85,0.00,,,0.04,WUHU216HW,2013-04-30 14:10:00,
2013-04-30 07:15:00,41.2,36.7,30.25,East,90,0.9,2.5,84,0.00,,,0.04,WUHU216HW,2013-04-30 14:15:00,
2013-04-30 07:20:00,41.6,37.1,30.26,NNE,23,0.2,2.5,84,0.00,,,0.04,WUHU216HW,2013-04-30 14:20:00,
2013-04-30 07:25:00,41.9,37.7,30.26,NE,45,1.3,2.9,85,0.00,,,0.04,WUHU216HW,2013-04-30 14:25:00,
2013-04-30 07:30:00,42.1,37.9,30.26,NE,45,0.9,2.9,85,0.00,,,0.04,WUHU216HW,2013-04-30 14:30:00,
2013-04-30 07:35:00,42.7,38.2,30.26,NNE,23,1.8,1.8,84,0.00,,,0.04,WUHU216HW,2013-04-30 14:35:00,
2013-04-30 07:40:00,43.2,38.7,30.26,NW,315,1.8,2.2,84,0.00,,,0.04,WUHU216HW,2013-04-30 14:40:00,
2013-04-30 07:45:00,43.6,38.1,30.27,NNE,23,1.8,4.0,81,0.00,,,0.04,WUHU216HW,2013-04-30 14:45:00,
2013-04-30 07:50:00,43.6,37.8,30.27,North,0,1.1,4.0,80,0.00,,,0.04,WUHU216HW,2013-04-30 14:50:00,
2013-04-30 07:55:00,43.6,37.8,30.27,ENE,68,1.1,3.4,80,0.00,,,0.04,WUHU216HW,2013-04-30 14:55:00,
2013-04-30 08:00:00,43.7,38.3,30.27,SSE,158,1.3,3.4,81,0.00,,,0.04,WUHU216HW,2013-04-30 15:00:00,
2013-04-30 08:05:00,43.6,38.1,30.27,ENE,68,1.1,2.5,81,0.00,,,0.04,WUHU216HW,2013-04-30 15:05:00,
2013-04-30 08:10:00,43.6,38.1,30.28,North,0,0.2,1.3,81,0.00,,,0.04,WUHU216HW,2013-04-30 15:10:00,
2013-04-30 08:15:00,43.4,37.9,30.28,NE,45,0.4,2.5,81,0.00,,,0.04,WUHU216HW,2013-04-30 15:15:00,
2013-04-30 08:20:00,43.0,37.5,30.28,NNE,23,0.4,2.5,81,0.00,,,0.04,WUHU216HW,2013-04-30 15:20:00,
2013-04-30 08:25:00,43.0,37.3,30.28,East,90,0.4,1.8,80,0.00,,,0.04,WUHU216HW,2013-04-30 15:25:00,
2013-04-30 08:30:00,42.8,36.7,30.28,NNE,23,0.7,1.1,79,0.00,,,0.04,WUHU216HW,2013-04-30 15:30:00,
2013-04-30 08:35:00,42.8,37.1,30.28,NNE,23,0.0,1.1,80,0.00,,,0.04,WUHU216HW,2013-04-30 15:35:00,
2013-04-30 08:40:00,43.0,37.5,30.29,NNE,23,0.0,0.7,81,0.00,,,0.04,WUHU216HW,2013-04-30 15:40:00,
2013-04-30 08:45:00,43.0,37.5,30.29,North,0,1.3,1.3,81,0.00,,,0.04,WUHU216HW,2013-04-30 15:45:00,
2013-04-30 08:50:00,42.8,37.4,30.29,NE,45,0.9,3.8,81,0.00,,,0.04,WUHU216HW,2013-04-30 15:50:00,
2013-04-30 08:55:00,42.5,37.4,30.29,North,0,0.9,3.8,82,0.00,,,0.04,WUHU216HW,2013-04-30 15:55:00,
2013-04-30 09:00:00,42.3,37.4,30.29,NNE,23,2.5,3.6,83,0.01,,,0.05,WUHU216HW,2013-04-30 16:00:00,
2013-04-30 09:05:00,42.3,37.2,30.29,WNW,293,0.9,3.6,82,0.01,,,0.05,WUHU216HW,2013-04-30 16:05:00,
2013-04-30 09:10:00,42.1,37.0,30.29,NNE,23,0.9,2.9,82,0.01,,,0.05,WUHU216HW,2013-04-30 16:10:00,
2013-04-30 09:15:00,42.5,37.6,30.30,NW,315,3.4,3.4,83,0.01,,,0.05,WUHU216HW,2013-04-30 16:15:00,
2013-04-30 09:20:00,42.8,37.4,30.30,NE,45,0.4,3.4,81,0.01,,,0.05,WUHU216HW,2013-04-30 16:20:00,
2013-04-30 09:25:00,43.4,37.9,30.29,ESE,113,0.4,2.5,81,0.01,,,0.05,WUHU216HW,2013-04-30 16:25:00,
2013-04-30 09:30:00,43.9,38.4,30.30,East,90,1.1,2.0,81,0.01,,,0.05,WUHU216HW,2013-04-30 16:30:00,
2013-04-30 09:35:00,44.8,38.7,30.30,North,0,0.9,1.8,79,0.01,,,0.05,WUHU216HW,2013-04-30 16:35:00,
2013-04-30 09:40:00,45.4,38.9,30.30,West,270,0.9,1.8,78,0.01,,,0.05,WUHU216HW,2013-04-30 16:40:00,
2013-04-30 09:45:00,45.7,39.2,30.30,SSW,203,0.4,2.0,78,0.01,,,0.05,WUHU216HW,2013-04-30 16:45:00,
2013-04-30 09:50:00,45.7,39.0,30.30,ESE,113,0.2,2.9,77,0.01,,,0.05,WUHU216HW,2013-04-30 16:50:00,
2013-04-30 09:55:00,45.7,39.0,30.30,North,0,1.1,2.9,77,0.01,,,0.05,WUHU216HW,2013-04-30 16:55:00,
2013-04-30 10:00:00,45.2,37.7,30.31,North,0,1.6,2.5,75,0.00,,,0.05,WUHU216HW,2013-04-30 17:00:00,
2013-04-30 10:05:00,45.0,38.3,30.31,South,180,1.3,2.7,77,0.00,,,0.05,WUHU216HW,2013-04-30 17:05:00,
2013-04-30 10:10:00,45.4,39.6,30.31,SE,135,2.0,2.7,80,0.00,,,0.05,WUHU216HW,2013-04-30 17:10:00,
2013-04-30 10:15:00,46.8,39.6,30.31,WSW,248,1.3,3.4,76,0.00,,,0.05,WUHU216HW,2013-04-30 17:15:00,
2013-04-30 10:20:00,47.0,39.4,30.31,SSE,158,1.1,3.4,75,0.00,,,0.05,WUHU216HW,2013-04-30 17:20:00,
2013-04-30 10:25:00,46.4,39.0,30.31,ESE,113,0.4,2.2,75,0.00,,,0.05,WUHU216HW,2013-04-30 17:25:00,
2013-04-30 10:30:00,46.1,39.0,30.31,SSE,158,1.3,2.0,76,0.00,,,0.05,WUHU216HW,2013-04-30 17:30:00,
2013-04-30 10:35:00,46.1,39.0,30.31,SSE,158,0.4,1.3,76,0.00,,,0.05,WUHU216HW,2013-04-30 17:35:00,
2013-04-30 10:40:00,46.1,38.6,30.32,SSE,158,0.4,1.8,75,0.00,,,0.05,WUHU216HW,2013-04-30 17:40:00,
2013-04-30 10:45:00,45.9,38.4,30.32,SSE,158,1.3,2.9,75,0.00,,,0.05,WUHU216HW,2013-04-30 17:45:00,
2013-04-30 10:50:00,46.1,38.3,30.32,SE,135,2.2,2.9,74,0.00,,,0.05,WUHU216HW,2013-04-30 17:50:00,
2013-04-30 10:55:00,46.1,38.6,30.32,SE,135,0.4,2.2,75,0.00,,,0.05,WUHU216HW,2013-04-30 17:55:00,
2013-04-30 11:00:00,46.4,39.3,30.32,SSE,158,1.3,1.6,76,0.00,,,0.05,WUHU216HW,2013-04-30 18:00:00,
2013-04-30 11:05:00,47.2,40.3,30.32,SSE,158,0.4,1.6,77,0.00,,,0.05,WUHU216HW,2013-04-30 18:05:00,
2013-04-30 11:10:00,47.9,40.6,30.32,SSE,158,2.0,2.0,76,0.00,,,0.05,WUHU216HW,2013-04-30 18:10:00,
2013-04-30 11:15:00,48.4,39.4,30.32,SSW,203,1.3,2.0,71,0.00,,,0.05,WUHU216HW,2013-04-30 18:15:00,
2013-04-30 11:20:00,48.8,39.4,30.32,NNE,23,1.1,3.1,70,0.00,,,0.05,WUHU216HW,2013-04-30 18:20:00,
2013-04-30 11:25:00,48.8,38.3,30.32,ESE,113,1.1,3.1,67,0.00,,,0.05,WUHU216HW,2013-04-30 18:25:00,
2013-04-30 11:30:00,49.5,38.6,30.32,SE,135,2.0,3.6,66,0.00,,,0.05,WUHU216HW,2013-04-30 18:30:00,
2013-04-30 11:35:00,50.0,39.5,30.33,NE,45,2.0,3.6,67,0.00,,,0.05,WUHU216HW,2013-04-30 18:35:00,
2013-04-30 11:40:00,50.0,38.7,30.33,SE,135,2.5,2.7,65,0.00,,,0.05,WUHU216HW,2013-04-30 18:40:00,
2013-04-30 11:45:00,49.9,38.9,30.33,SSE,158,0.9,2.5,66,0.00,,,0.05,WUHU216HW,2013-04-30 18:45:00,
2013-04-30 11:50:00,49.9,39.7,30.33,North,0,0.9,2.2,68,0.00,,,0.05,WUHU216HW,2013-04-30 18:50:00,
2013-04-30 11:55:00,49.9,40.2,30.33,SSE,158,1.3,2.2,69,0.00,,,0.05,WUHU216HW,2013-04-30 18:55:00,
2013-04-30 12:00:00,50.0,40.7,30.33,SSE,158,1.8,2.7,70,0.00,,,0.05,WUHU216HW,2013-04-30 19:00:00,
2013-04-30 12:05:00,51.3,40.3,30.33,North,0,2.7,3.4,66,0.00,,,0.05,WUHU216HW,2013-04-30 19:05:00,
2013-04-30 12:10:00,51.5,37.5,30.33,SE,135,2.0,3.4,59,0.00,,,0.05,WUHU216HW,2013-04-30 19:10:00,
2013-04-30 12:15:00,51.1,36.8,30.34,NE,45,1.3,3.1,58,0.00,,,0.05,WUHU216HW,2013-04-30 19:15:00,
2013-04-30 12:20:00,50.6,38.0,30.34,NNW,338,2.0,3.1,62,0.00,,,0.05,WUHU216HW,2013-04-30 19:20:00,
2013-04-30 12:25:00,50.4,37.8,30.34,NNW,338,1.3,3.8,62,0.00,,,0.05,WUHU216HW,2013-04-30 19:25:00,
2013-04-30 12:30:00,50.6,38.8,30.34,North,0,1.3,3.8,64,0.00,,,0.05,WUHU216HW,2013-04-30 19:30:00,
2013-04-30 12:35:00,51.1,38.1,30.34,SSE,158,2.5,2.5,61,0.00,,,0.05,WUHU216HW,2013-04-30 19:35:00,
2013-04-30 12:40:00,51.8,39.6,30.34,SSW,203,1.6,2.5,63,0.00,,,0.05,WUHU216HW,2013-04-30 19:40:00,
2013-04-30 12:45:00,52.0,38.1,30.34,ENE,68,0.4,2.0,59,0.00,,,0.05,WUHU216HW,2013-04-30 19:45:00,
2013-04-30 12:50:00,51.7,37.3,30.34,NE,45,0.4,2.9,58,0.00,,,0.05,WUHU216HW,2013-04-30 19:50:00,
2013-04-30 12:55:00,51.3,37.5,30.34,North,0,2.9,2.9,59,0.00,,,0.05,WUHU216HW,2013-04-30 19:55:00,
2013-04-30 13:00:00,51.3,37.9,30.34,NNE,23,0.4,3.6,60,0.00,,,0.05,WUHU216HW,2013-04-30 20:00:00,
2013-04-30 13:05:00,51.5,38.0,30.34,WSW,248,2.0,5.4,60,0.00,,,0.05,WUHU216HW,2013-04-30 20:05:00,
2013-04-30 13:10:00,52.4,37.5,30.34,North,0,2.7,5.4,57,0.00,,,0.05,WUHU216HW,2013-04-30 20:10:00,
2013-04-30 13:15:00,52.7,37.9,30.34,NW,315,3.6,3.6,57,0.00,,,0.05,WUHU216HW,2013-04-30 20:15:00,
2013-04-30 13:20:00,52.4,36.6,30.34,North,0,2.5,3.6,55,0.00,,,0.05,WUHU216HW,2013-04-30 20:20:00,
2013-04-30 13:25:00,52.2,36.5,30.34,NW,315,0.9,3.4,55,0.00,,,0.05,WUHU216HW,2013-04-30 20:25:00,
2013-04-30 13:30:00,52.6,37.3,30.34,ESE,113,1.1,3.4,56,0.00,,,0.05,WUHU216HW,2013-04-30 20:30:00,
2013-04-30 13:35:00,52.6,34.9,30.34,NE,45,2.7,3.4,51,0.00,,,0.05,WUHU216HW,2013-04-30 20:35:00,
2013-04-30 13:40:00,52.6,35.8,30.34,SE,135,1.1,3.4,53,0.00,,,0.05,WUHU216HW,2013-04-30 20:40:00,
2013-04-30 13:45:00,52.9,36.6,30.34,North,0,1.1,5.4,54,0.00,,,0.05,WUHU216HW,2013-04-30 20:45:00,
2013-04-30 13:50:00,53.1,35.5,30.34,WSW,248,0.4,5.4,51,0.00,,,0.05,WUHU216HW,2013-04-30 20:50:00,
2013-04-30 13:55:00,52.6,33.4,30.35,North,0,1.1,3.4,48,0.00,,,0.05,WUHU216HW,2013-04-30 20:55:00,
2013-04-30 14:00:00,52.2,35.1,30.34,NNE,23,1.1,3.4,52,0.00,,,0.05,WUHU216HW,2013-04-30 21:00:00,
2013-04-30 14:05:00,52.4,34.3,30.35,NNE,23,3.6,4.7,50,0.00,,,0.05,WUHU216HW,2013-04-30 21:05:00,
2013-04-30 14:10:00,51.8,33.8,30.35,North,0,0.7,4.7,50,0.00,,,0.05,WUHU216HW,2013-04-30 21:10:00,
2013-04-30 14:15:00,51.3,33.9,30.35,NE,45,1.1,3.4,51,0.00,,,0.05,WUHU216HW,2013-04-30 21:15:00,
2013-04-30 14:20:00,51.5,33.5,30.35,North,0,1.3,3.1,50,0.00,,,0.05,WUHU216HW,2013-04-30 21:20:00,
2013-04-30 14:25:00,51.5,34.8,30.35,North,0,1.6,3.4,53,0.00,,,0.05,WUHU216HW,2013-04-30 21:25:00,
2013-04-30 14:30:00,52.2,35.6,30.35,NNE,23,0.9,3.4,53,0.00,,,0.05,WUHU216HW,2013-04-30 21:30:00,
2013-04-30 14:35:00,52.9,34.3,30.35,NE,45,2.7,4.0,49,0.00,,,0.05,WUHU216HW,2013-04-30 21:35:00,
2013-04-30 14:40:00,53.6,34.4,30.35,NNE,23,1.8,4.0,48,0.00,,,0.05,WUHU216HW,2013-04-30 21:40:00,
2013-04-30 14:45:00,53.6,34.4,30.35,NNW,338,1.8,2.9,48,0.00,,,0.05,WUHU216HW,2013-04-30 21:45:00,
2013-04-30 14:50:00,53.6,33.8,30.36,East,90,3.4,3.4,47,0.00,,,0.05,WUHU216HW,2013-04-30 21:50:00,
2013-04-30 14:55:00,53.6,34.9,30.36,West,270,2.5,4.5,49,0.00,,,0.05,WUHU216HW,2013-04-30 21:55:00,
2013-04-30 15:00:00,53.3,33.0,30.36,NNW,338,2.9,4.5,46,0.00,,,0.05,WUHU216HW,2013-04-30 22:00:00,
2013-04-30 15:05:00,53.1,32.8,30.36,NE,45,2.7,4.9,46,0.00,,,0.05,WUHU216HW,2013-04-30 22:05:00,
2013-04-30 15:10:00,53.3,33.5,30.36,NNW,338,1.8,4.9,47,0.00,,,0.05,WUHU216HW,2013-04-30 22:10:00,
2013-04-30 15:15:00,53.3,35.1,30.36,West,270,0.9,4.7,50,0.00,,,0.05,WUHU216HW,2013-04-30 22:15:00,
2013-04-30 15:20:00,53.5,34.7,30.36,NW,315,2.5,2.7,49,0.00,,,0.05,WUHU216HW,2013-04-30 22:20:00,
2013-04-30 15:25:00,53.3,34.0,30.36,East,90,1.3,2.7,48,0.00,,,0.05,WUHU216HW,2013-04-30 22:25:00,
2013-04-30 15:30:00,53.5,33.7,30.36,West,270,5.1,5.1,47,0.00,,,0.05,WUHU216HW,2013-04-30 22:30:00,
2013-04-30 15:35:00,53.6,35.5,30.36,WSW,248,2.0,5.1,50,0.00,,,0.05,WUHU216HW,2013-04-30 22:35:00,
2013-04-30 15:40:00,53.6,34.9,30.36,SW,225,2.2,2.5,49,0.00,,,0.05,WUHU216HW,2013-04-30 22:40:00,
2013-04-30 15:45:00,53.6,34.9,30.36,NE,45,0.4,2.5,49,0.00,,,0.05,WUHU216HW,2013-04-30 22:45:00,
2013-04-30 15:50:00,54.0,35.2,30.36,North,0,2.9,3.1,49,0.00,,,0.05,WUHU216HW,2013-04-30 22:50:00,
2013-04-30 15:55:00,54.0,35.2,30.36,East,90,1.3,3.1,49,0.00,,,0.05,WUHU216HW,2013-04-30 22:55:00,
2013-04-30 16:00:00,54.4,35.6,30.36,NE,45,0.0,2.5,49,0.00,,,0.05,WUHU216HW,2013-04-30 23:00:00,
2013-04-30 16:05:00,54.4,34.5,30.36,West,270,2.2,3.4,47,0.00,,,0.05,WUHU216HW,2013-04-30 23:05:00,
2013-04-30 16:10:00,54.4,35.6,30.36,South,180,1.1,3.4,49,0.00,,,0.05,WUHU216HW,2013-04-30 23:10:00,
2013-04-30 16:15:00,54.4,33.8,30.36,North,0,0.9,4.7,46,0.00,,,0.05,WUHU216HW,2013-04-30 23:15:00,
2013-04-30 16:20:00,54.0,34.7,30.36,SSW,203,1.3,4.7,48,0.00,,,0.05,WUHU216HW,2013-04-30 23:20:00,
2013-04-30 16:25:00,54.0,35.2,30.37,North,0,3.1,3.4,49,0.00,,,0.05,WUHU216HW,2013-04-30 23:25:00,
2013-04-30 16:30:00,54.2,35.4,30.36,NE,45,0.4,3.4,49,0.00,,,0.05,WUHU216HW,2013-04-30 23:30:00,
2013-04-30 16:35:00,54.4,34.5,30.37,NNE,23,2.7,2.7,47,0.00,,,0.05,WUHU216HW,2013-04-30 23:35:00,
2013-04-30 16:40:00,54.0,35.2,30.37,West,270,1.8,2.7,49,0.00,,,0.05,WUHU216HW,2013-04-30 23:40:00,
2013-04-30 16:45:00,54.2,35.9,30.37,WSW,248,0.9,3.4,50,0.00,,,0.05,WUHU216HW,2013-04-30 23:45:00,
2013-04-30 16:50:00,54.4,36.5,30.37,North,0,3.4,3.4,51,0.00,,,0.05,WUHU216HW,2013-04-30 23:50:00,
2013-04-30 16:55:00,54.4,35.6,30.37,South,180,1.3,3.4,49,0.00,,,0.05,WUHU216HW,2013-04-30 23:55:00,
2013-04-30 17:00:00,54.5,36.3,30.37,SE,135,1.6,2.5,50,0.00,,,0.05,WUHU216HW,2013-05-01 00:00:00,
2013-04-30 17:05:00,54.5,36.3,30.37,North,0,1.8,2.7,50,0.00,,,0.05,WUHU216HW,2013-05-01 00:05:00,
2013-04-30 17:10:00,54.2,35.9,30.37,North,0,0.9,2.7,50,0.00,,,0.05,WUHU216HW,2013-05-01 00:10:00,
2013-04-30 17:15:00,54.0,35.8,30.37,NNW,338,0.9,3.4,50,0.00,,,0.05,WUHU216HW,2013-05-01 00:15:00,
2013-04-30 17:20:00,53.6,34.9,30.37,NNW,338,2.9,3.8,49,0.00,,,0.05,WUHU216HW,2013-05-01 00:20:00,
2013-04-30 17:25:00,53.5,35.3,30.38,WSW,248,0.9,3.8,50,0.00,,,0.05,WUHU216HW,2013-05-01 00:25:00,
2013-04-30 17:30:00,53.3,35.7,30.38,SSW,203,1.1,3.4,51,0.00,,,0.05,WUHU216HW,2013-05-01 00:30:00,
2013-04-30 17:35:00,53.3,34.6,30.38,North,0,2.5,2.5,49,0.00,,,0.05,WUHU216HW,2013-05-01 00:35:00,
2013-04-30 17:40:00,53.1,35.0,30.38,North,0,1.8,2.5,50,0.00,,,0.05,WUHU216HW,2013-05-01 00:40:00,
2013-04-30 17:45:00,53.1,34.4,30.38,NW,315,2.2,2.5,49,0.00,,,0.05,WUHU216HW,2013-05-01 00:45:00,
2013-04-30 17:50:00,53.1,35.0,30.38,North,0,0.7,2.2,50,0.00,,,0.05,WUHU216HW,2013-05-01 00:50:00,
2013-04-30 17:55:00,52.9,35.3,30.38,WNW,293,0.2,1.8,51,0.00,,,0.05,WUHU216HW,2013-05-01 00:55:00,
2013-04-30 17:59:00,52.9,35.3,30.38,NW,315,1.8,1.8,51,0.00,,,0.05,WUHU216HW,2013-05-01 00:59:00,
2013-04-30 18:04:00,52.7,35.6,30.38,NNE,23,0.4,1.8,52,0.00,,,0.05,WUHU216HW,2013-05-01 01:04:00,
2013-04-30 18:09:00,52.7,35.6,30.38,North,0,0.9,1.8,52,0.00,,,0.05,WUHU216HW,2013-05-01 01:09:00,
2013-04-30 18:14:00,52.7,35.6,30.38,WNW,293,1.1,1.8,52,0.00,,,0.05,WUHU216HW,2013-05-01 01:14:00,
2013-04-30 18:19:00,52.9,35.7,30.38,North,0,0.7,1.8,52,0.00,,,0.05,WUHU216HW,2013-05-01 01:19:00,
2013-04-30 18:24:00,52.9,36.2,30.38,North,0,1.1,1.8,53,0.00,,,0.05,WUHU216HW,2013-05-01 01:24:00,
2013-04-30 18:29:00,52.9,36.2,30.39,NNW,338,0.0,1.1,53,0.00,,,0.05,WUHU216HW,2013-05-01 01:29:00,
2013-04-30 18:34:00,52.9,35.3,30.38,NNE,23,1.1,3.1,51,0.00,,,0.05,WUHU216HW,2013-05-01 01:34:00,
2013-04-30 18:39:00,52.7,35.6,30.38,North,0,0.9,3.1,52,0.00,,,0.05,WUHU216HW,2013-05-01 01:39:00,
2013-04-30 18:44:00,52.7,35.6,30.38,North,0,1.3,2.2,52,0.00,,,0.05,WUHU216HW,2013-05-01 01:44:00,
2013-04-30 18:49:00,52.6,35.4,30.38,North,0,2.7,2.7,52,0.00,,,0.05,WUHU216HW,2013-05-01 01:49:00,
2013-04-30 18:54:00,52.6,34.9,30.38,NNW,338,2.0,2.7,51,0.00,,,0.05,WUHU216HW,2013-05-01 01:54:00,
2013-04-30 18:59:00,52.6,35.4,30.39,North,0,0.4,2.0,52,0.00,,,0.05,WUHU216HW,2013-05-01 01:59:00,
2013-04-30 19:04:00,52.6,35.4,30.39,North,0,1.1,2.2,52,0.00,,,0.05,WUHU216HW,2013-05-01 02:04:00,
2013-04-30 19:09:00,52.4,35.3,30.39,North,0,0.9,2.2,52,0.00,,,0.05,WUHU216HW,2013-05-01 02:09:00,
2013-04-30 19:14:00,52.4,35.3,30.39,NW,315,0.2,1.8,52,0.00,,,0.05,WUHU216HW,2013-05-01 02:14:00,
2013-04-30 19:19:00,52.2,35.6,30.39,NW,315,0.9,1.6,53,0.00,,,0.05,WUHU216HW,2013-05-01 02:19:00,
2013-04-30 19:24:00,52.0,35.4,30.39,NW,315,0.4,1.8,53,0.00,,,0.05,WUHU216HW,2013-05-01 02:24:00,
2013-04-30 19:29:00,52.0,35.8,30.39,NNW,338,0.4,1.8,54,0.00,,,0.05,WUHU216HW,2013-05-01 02:29:00,
2013-04-30 19:34:00,51.8,36.1,30.39,WNW,293,0.0,1.6,55,0.00,,,0.05,WUHU216HW,2013-05-01 02:34:00,
2013-04-30 19:39:00,51.8,36.1,30.39,SE,135,0.0,0.4,55,0.00,,,0.05,WUHU216HW,2013-05-01 02:39:00,
2013-04-30 19:44:00,51.7,36.4,30.39,North,0,0.0,0.7,56,0.00,,,0.05,WUHU216HW,2013-05-01 02:44:00,
2013-04-30 19:49:00,51.5,36.2,30.39,North,0,0.4,0.7,56,0.00,,,0.05,WUHU216HW,2013-05-01 02:49:00,
2013-04-30 19:54:00,51.5,36.2,30.39,North,0,0.0,0.4,56,0.00,,,0.05,WUHU216HW,2013-05-01 02:54:00,
2013-04-30 19:59:00,51.3,36.6,30.40,NW,315,0.0,0.7,57,0.00,,,0.05,WUHU216HW,2013-05-01 02:59:00,
2013-04-30 20:04:00,51.1,35.9,30.40,North,0,0.4,1.1,56,0.00,,,0.05,WUHU216HW,2013-05-01 03:04:00,
2013-04-30 20:09:00,50.9,35.7,30.39,WNW,293,0.0,2.0,56,0.00,,,0.05,WUHU216HW,2013-05-01 03:09:00,
2013-04-30 20:14:00,50.8,35.6,30.40,NW,315,0.4,2.0,56,0.00,,,0.05,WUHU216HW,2013-05-01 03:14:00,
2013-04-30 20:19:00,50.6,35.4,30.40,NNW,338,0.4,1.1,56,0.00,,,0.05,WUHU216HW,2013-05-01 03:19:00,
2013-04-30 20:24:00,50.4,35.3,30.40,NNW,338,0.0,1.1,56,0.00,,,0.05,WUHU216HW,2013-05-01 03:24:00,
2013-04-30 20:29:00,50.2,35.1,30.40,WNW,293,0.7,0.7,56,0.00,,,0.05,WUHU216HW,2013-05-01 03:29:00,
2013-04-30 20:34:00,50.0,35.4,30.40,WNW,293,0.2,0.7,57,0.00,,,0.05,WUHU216HW,2013-05-01 03:34:00,
2013-04-30 20:39:00,49.9,35.6,30.40,WNW,293,0.7,0.7,58,0.00,,,0.05,WUHU216HW,2013-05-01 03:39:00,
2013-04-30 20:44:00,49.7,35.5,30.40,NNW,338,0.4,0.7,58,0.00,,,0.05,WUHU216HW,2013-05-01 03:44:00,
2013-04-30 20:49:00,49.3,35.7,30.40,NW,315,0.4,0.7,59,0.00,,,0.05,WUHU216HW,2013-05-01 03:49:00,
2013-04-30 20:54:00,49.3,36.1,30.41,NNW,338,0.4,0.7,60,0.00,,,0.05,WUHU216HW,2013-05-01 03:54:00,
2013-04-30 20:59:00,49.1,35.9,30.41,NNW,338,0.0,0.7,60,0.00,,,0.05,WUHU216HW,2013-05-01 03:59:00,
2013-04-30 21:01:00,49.1,35.9,30.41,NNW,338,0.4,0.7,60,0.00,,,0.05,WUHU216HW,2013-05-01 04:01:00,
2013-04-30 21:06:00,49.0,35.7,30.41,NNW,338,0.4,0.4,60,0.00,,,0.05,WUHU216HW,2013-05-01 04:06:00,
2013-04-30 21:11:00,49.0,36.1,30.41,NNW,338,0.0,0.4,61,0.00,,,0.05,WUHU216HW,2013-05-01 04:11:00,
2013-04-30 21:16:00,48.6,35.8,30.41,NNW,338,0.2,0.4,61,0.00,,,0.05,WUHU216HW,2013-05-01 04:16:00,
2013-04-30 21:21:00,48.4,35.6,30.41,NW,315,0.9,0.9,61,0.00,,,0.05,WUHU216HW,2013-05-01 04:21:00,
2013-04-30 21:26:00,48.2,35.5,30.42,NW,315,0.0,0.9,61,0.00,,,0.05,WUHU216HW,2013-05-01 04:26:00,
2013-04-30 21:31:00,48.1,35.6,30.42,NW,315,0.4,0.9,62,0.00,,,0.05,WUHU216HW,2013-05-01 04:31:00,
2013-04-30 21:36:00,47.9,35.1,30.42,NW,315,0.9,0.9,61,0.00,,,0.05,WUHU216HW,2013-05-01 04:36:00,
2013-04-30 21:41:00,47.9,35.5,30.42,NW,315,0.4,0.9,62,0.00,,,0.05,WUHU216HW,2013-05-01 04:41:00,
2013-04-30 21:46:00,47.9,35.5,30.42,NW,315,0.0,0.7,62,0.00,,,0.05,WUHU216HW,2013-05-01 04:46:00,
2013-04-30 21:51:00,47.9,35.5,30.42,NW,315,0.4,0.4,62,0.00,,,0.05,WUHU216HW,2013-05-01 04:51:00,
2013-04-30 21:56:00,47.7,35.4,30.42,NW,315,0.0,0.4,62,0.00,,,0.05,WUHU216HW,2013-05-01 04:56:00,
2013-04-30 22:01:00,47.5,35.2,30.42,NW,315,0.0,0.4,62,0.00,,,0.05,WUHU216HW,2013-05-01 05:01:00,
2013-04-30 22:06:00,47.5,35.2,30.42,NW,315,0.2,0.4,62,0.00,,,0.05,WUHU216HW,2013-05-01 05:06:00,
2013-04-30 22:11:00,47.3,35.4,30.43,NW,315,0.7,0.7,63,0.00,,,0.05,WUHU216HW,2013-05-01 05:11:00,
2013-04-30 22:16:00,47.2,35.2,30.43,NW,315,0.7,0.7,63,0.00,,,0.05,WUHU216HW,2013-05-01 05:16:00,
2013-04-30 22:21:00,47.2,35.2,30.43,WNW,293,0.4,0.7,63,0.00,,,0.05,WUHU216HW,2013-05-01 05:21:00,
2013-04-30 22:26:00,47.0,35.4,30.43,WNW,293,0.4,1.1,64,0.00,,,0.05,WUHU216HW,2013-05-01 05:26:00,
2013-04-30 22:31:00,46.8,35.2,30.44,WNW,293,0.4,1.1,64,0.00,,,0.05,WUHU216HW,2013-05-01 05:31:00,
2013-04-30 22:36:00,46.6,35.1,30.44,WNW,293,0.4,0.4,64,0.00,,,0.05,WUHU216HW,2013-05-01 05:36:00,
2013-04-30 22:41:00,46.4,34.9,30.44,WNW,293,0.0,0.4,64,0.00,,,0.05,WUHU216HW,2013-05-01 05:41:00,
2013-04-30 22:46:00,46.4,34.9,30.44,WNW,293,0.0,0.0,64,0.00,,,0.05,WUHU216HW,2013-05-01 05:46:00,
2013-04-30 22:51:00,46.3,34.8,30.43,WNW,293,0.0,0.0,64,0.00,,,0.05,WUHU216HW,2013-05-01 05:51:00,
2013-04-30 22:56:00,46.3,34.8,30.43,WNW,293,0.0,0.0,64,0.00,,,0.05,WUHU216HW,2013-05-01 05:56:00,
2013-04-30 23:01:00,46.1,34.6,30.43,WNW,293,0.0,0.0,64,0.00,,,0.05,WUHU216HW,2013-05-01 06:01:00,
2013-04-30 23:06:00,46.1,34.9,30.44,WNW,293,0.0,0.7,65,0.00,,,0.05,WUHU216HW,2013-05-01 06:06:00,
2013-04-30 23:11:00,45.7,34.6,30.44,WNW,293,0.0,0.7,65,0.00,,,0.05,WUHU216HW,2013-05-01 06:11:00,
2013-04-30 23:16:00,45.5,34.5,30.44,WNW,293,0.0,0.0,65,0.00,,,0.05,WUHU216HW,2013-05-01 06:16:00,
2013-04-30 23:21:00,45.4,34.7,30.44,WNW,293,0.0,0.2,66,0.00,,,0.05,WUHU216HW,2013-05-01 06:21:00,
2013-04-30 23:26:00,45.2,34.5,30.44,WNW,293,0.0,0.2,66,0.00,,,0.05,WUHU216HW,2013-05-01 06:26:00,
2013-04-30 23:31:00,45.0,34.3,30.44,NW,315,0.4,0.7,66,0.00,,,0.05,WUHU216HW,2013-05-01 06:31:00,
2013-04-30 23:36:00,44.6,34.3,30.44,NNW,338,0.0,1.1,67,0.00,,,0.05,WUHU216HW,2013-05-01 06:36:00,
2013-04-30 23:41:00,44.6,34.3,30.45,North,0,0.4,1.1,67,0.00,,,0.05,WUHU216HW,2013-05-01 06:41:00,
2013-04-30 23:46:00,44.8,34.1,30.45,NW,315,1.1,1.1,66,0.00,,,0.05,WUHU216HW,2013-05-01 06:46:00,
2013-04-30 23:51:00,45.0,34.3,30.45,NNW,338,0.0,1.1,66,0.00,,,0.05,WUHU216HW,2013-05-01 06:51:00,
2013-04-30 23:56:00,45.0,34.3,30.45,West,270,1.1,1.1,66,0.00,,,0.05,WUHU216HW,2013-05-01 06:56:00,